{"data":{"norad_id":62166,"epoch":"2026-05-24T23:24:38.994048Z","epoch_age_seconds":80263,"freshness":"FRESH","line1":"1 62166U 24225D   26144.97545132  .00002849  00000+0  24639-3 0  9998","line2":"2 62166  70.0029 332.0440 0001979 259.0270 101.0666 14.98338876 81307","mean_motion":14.98338876,"eccentricity":0.0001979,"inclination_deg":70.0029,"raan_deg":332.044,"arg_perigee_deg":259.027,"mean_anomaly_deg":101.0666,"bstar":0.00024639,"rev_number":8130,"period_min":96.106429798061,"perigee_km":570.65300504097,"apogee_km":573.40388052323,"semimajor_km":6950.1654427821,"source":"CELESTRAK","updated_at":"2026-05-25T13:38:19.600407Z"}}